When you browse on this site, cookies collect data to enhance your experience and personalize the content and advertising you see.
Visit our Privacy Policy to learn more. By continuing to use the site, you agree to this use of cookies and data.
  • In Czech Republic
  • List of Countries
  • For 7 days
  • Water Temperature
  • Weather Map
  • Weather Widgets
  • user-avatar
    Login

    Hourly Weather Catió

    Today, 18 October, Friday

    Time Temperature Precipitation Wind Pressure Humidity
    00:00 +28°C° 0.2 mm 2 mps 758 mmHg 92%
    01:00 +28°C° 0.2 mm 2 mps 758 mmHg 93%
    02:00 +28°C° 0.2 mm 2 mps 757 mmHg 93%
    03:00 +27°C° 0.2 mm 2 mps 757 mmHg 94%
    04:00 +27°C° 0.2 mm 2 mps 757 mmHg 94%
    05:00 +27°C° 0.2 mm 3 mps 757 mmHg 95%
    06:00 +28°C° 0.2 mm 3 mps 757 mmHg 91%
    07:00 +29°C° 0.2 mm 3 mps 758 mmHg 87%
    08:00 +30°C° 0.2 mm 2 mps 758 mmHg 84%
    09:00 +31°C° 0 mm 2 mps 758 mmHg 75%
    10:00 +34°C° 0 mm 2 mps 758 mmHg 66%
    11:00 +36°C° 0 mm 2 mps 758 mmHg 58%
    12:00 +36°C° 0 mm 2 mps 757 mmHg 57%
    13:00 +36°C° 0 mm 3 mps 757 mmHg 55%
    14:00 +36°C° 0 mm 3 mps 756 mmHg 54%
    15:00 +35°C° 0 mm 3 mps 756 mmHg 61%
    16:00 +33°C° 0 mm 4 mps 756 mmHg 69%
    17:00 +32°C° 0 mm 4 mps 756 mmHg 76%
    18:00 +30°C° 0 mm 3 mps 757 mmHg 80%
    19:00 +29°C° 0 mm 3 mps 757 mmHg 84%
    20:00 +28°C° 0 mm 3 mps 758 mmHg 87%
    21:00 +28°C° 0 mm 3 mps 758 mmHg 88%
    22:00 +28°C° 0 mm 3 mps 758 mmHg 89%
    23:00 +28°C° 0 mm 3 mps 758 mmHg 90%

    Tomorrow, 19 October, Saturday

    Time Temperature Precipitation Wind Pressure Humidity
    00:00 +28°C° 0 mm 3 mps 757 mmHg 91%
    01:00 +28°C° 0 mm 3 mps 757 mmHg 91%
    02:00 +28°C° 0 mm 3 mps 756 mmHg 92%
    03:00 +28°C° 0 mm 3 mps 756 mmHg 92%
    04:00 +27°C° 0 mm 3 mps 756 mmHg 93%
    05:00 +27°C° 0 mm 3 mps 756 mmHg 93%
    06:00 +28°C° 0 mm 3 mps 757 mmHg 88%
    07:00 +29°C° 0 mm 3 mps 757 mmHg 84%
    08:00 +31°C° 0 mm 3 mps 758 mmHg 79%
    09:00 +33°C° 0 mm 3 mps 758 mmHg 72%
    10:00 +34°C° 0 mm 3 mps 758 mmHg 66%
    11:00 +35°C° 0 mm 3 mps 757 mmHg 59%
    12:00 +35°C° 0.1 mm 3 mps 757 mmHg 59%
    13:00 +35°C° 0.1 mm 3 mps 756 mmHg 59%
    14:00 +35°C° 0.1 mm 3 mps 756 mmHg 59%
    15:00 +34°C° 0 mm 4 mps 756 mmHg 65%
    16:00 +33°C° 0 mm 4 mps 756 mmHg 70%
    17:00 +32°C° 0 mm 4 mps 756 mmHg 76%
    18:00 +30°C° 0 mm 4 mps 756 mmHg 80%
    19:00 +29°C° 0 mm 3 mps 757 mmHg 84%
    20:00 +28°C° 0 mm 3 mps 758 mmHg 88%
    21:00 +28°C° 0 mm 3 mps 758 mmHg 89%
    22:00 +28°C° 0 mm 3 mps 758 mmHg 90%
    23:00 +28°C° 0 mm 3 mps 758 mmHg 91%

    Day after tomorrow, 20 October, Sunday

    Time Temperature Precipitation Wind Pressure Humidity
    00:00 +28°C° 0 mm 3 mps 757 mmHg 92%
    01:00 +28°C° 0 mm 3 mps 757 mmHg 93%
    02:00 +27°C° 0 mm 3 mps 756 mmHg 94%
    03:00 +27°C° 0 mm 3 mps 756 mmHg 94%
    04:00 +27°C° 0 mm 3 mps 756 mmHg 94%
    05:00 +27°C° 0 mm 3 mps 756 mmHg 94%
    06:00 +28°C° 0 mm 3 mps 756 mmHg 89%
    07:00 +29°C° 0 mm 3 mps 757 mmHg 83%
    08:00 +30°C° 0 mm 3 mps 757 mmHg 78%
    09:00 +33°C° 0 mm 3 mps 757 mmHg 71%
    10:00 +34°C° 0 mm 3 mps 757 mmHg 65%
    11:00 +35°C° 0 mm 3 mps 757 mmHg 58%
    12:00 +35°C° 0 mm 3 mps 756 mmHg 59%
    13:00 +35°C° 0 mm 3 mps 756 mmHg 60%
    14:00 +35°C° 0 mm 4 mps 755 mmHg 62%
    15:00 +34°C° 0 mm 4 mps 755 mmHg 67%
    16:00 +31°C° 0 mm 3 mps 755 mmHg 72%
    17:00 +30°C° 0 mm 3 mps 755 mmHg 77%
    18:00 +29°C° 0 mm 3 mps 756 mmHg 81%
    19:00 +29°C° 0 mm 3 mps 756 mmHg 85%
    20:00 +28°C° 0 mm 3 mps 757 mmHg 89%
    21:00 +28°C° 0 mm 3 mps 757 mmHg 90%
    22:00 +28°C° 0 mm 3 mps 757 mmHg 90%
    23:00 +27°C° 0 mm 3 mps 757 mmHg 91%

    21 October, Monday

    Time Temperature Precipitation Wind Pressure Humidity
    00:00 +27°C° 0 mm 3 mps 757 mmHg 92%
    01:00 +27°C° 0 mm 3 mps 756 mmHg 92%
    02:00 +27°C° 0 mm 2 mps 756 mmHg 93%
    03:00 +27°C° 0 mm 2 mps 756 mmHg 93%
    04:00 +27°C° 0 mm 2 mps 756 mmHg 93%
    05:00 +27°C° 0 mm 2 mps 756 mmHg 93%
    06:00 +28°C° 0 mm 1 mps 757 mmHg 89%
    07:00 +29°C° 0 mm 1 mps 757 mmHg 85%
    08:00 +29°C° 0 mm 1 mps 758 mmHg 82%
    09:00 +31°C° 0 mm 2 mps 758 mmHg 75%
    10:00 +32°C° 0 mm 2 mps 758 mmHg 68%
    11:00 +35°C° 0 mm 2 mps 758 mmHg 61%
    12:00 +35°C° 0 mm 3 mps 757 mmHg 61%
    13:00 +35°C° 0 mm 3 mps 756 mmHg 61%
    14:00 +35°C° 0 mm 3 mps 756 mmHg 61%
    15:00 +33°C° 0.3 mm 3 mps 756 mmHg 67%
    16:00 +31°C° 0.3 mm 3 mps 756 mmHg 73%
    17:00 +30°C° 0.3 mm 3 mps 756 mmHg 80%
    18:00 +29°C° 0 mm 3 mps 756 mmHg 82%
    19:00 +29°C° 0 mm 3 mps 757 mmHg 85%
    20:00 +28°C° 0 mm 3 mps 757 mmHg 88%
    21:00 +28°C° 0 mm 3 mps 757 mmHg 89%
    22:00 +28°C° 0 mm 3 mps 757 mmHg 89%
    23:00 +28°C° 0 mm 3 mps 757 mmHg 90%

    22 October, Tuesday

    Time Temperature Precipitation Wind Pressure Humidity
    00:00 +28°C° 0 mm 3 mps 756 mmHg 90%
    01:00 +28°C° 0 mm 3 mps 756 mmHg 90%
    02:00 +28°C° 0 mm 3 mps 755 mmHg 90%
    03:00 +28°C° 0 mm 2 mps 756 mmHg 91%
    04:00 +27°C° 0 mm 2 mps 756 mmHg 91%
    05:00 +27°C° 0 mm 1 mps 756 mmHg 92%
    06:00 +28°C° 0.6 mm 1 mps 756 mmHg 88%
    07:00 +29°C° 0.6 mm 1 mps 757 mmHg 84%
    08:00 +30°C° 0.6 mm 1 mps 757 mmHg 80%
    09:00 +31°C° 0 mm 2 mps 757 mmHg 73%
    10:00 +32°C° 0 mm 2 mps 757 mmHg 66%
    11:00 +35°C° 0 mm 3 mps 756 mmHg 60%
    12:00 +35°C° 0 mm 3 mps 756 mmHg 59%
    13:00 +35°C° 0 mm 4 mps 755 mmHg 58%
    14:00 +35°C° 0 mm 4 mps 754 mmHg 58%
    15:00 +34°C° 0.1 mm 4 mps 754 mmHg 62%
    16:00 +33°C° 0.1 mm 3 mps 754 mmHg 67%
    17:00 +31°C° 0.1 mm 3 mps 754 mmHg 72%
    18:00 +30°C° 0.6 mm 3 mps 755 mmHg 76%
    19:00 +29°C° 0.6 mm 3 mps 755 mmHg 81%
    20:00 +28°C° 0.6 mm 4 mps 756 mmHg 85%
    21:00 +28°C° 0 mm 3 mps 756 mmHg 86%
    22:00 +28°C° 0 mm 3 mps 756 mmHg 86%
    23:00 +28°C° 0 mm 3 mps 756 mmHg 86%

    23 October, Wednesday

    Time Temperature Precipitation Wind Pressure Humidity
    00:00 +28°C° 0 mm 3 mps 755 mmHg 87%
    01:00 +27°C° 0 mm 3 mps 755 mmHg 87%
    02:00 +27°C° 0 mm 3 mps 754 mmHg 88%
    03:00 +27°C° 0.8 mm 3 mps 754 mmHg 88%
    04:00 +27°C° 0.8 mm 2 mps 754 mmHg 88%
    05:00 +26°C° 0.8 mm 2 mps 754 mmHg 87%
    06:00 +27°C° 0.1 mm 2 mps 754 mmHg 83%
    07:00 +28°C° 0.1 mm 2 mps 755 mmHg 79%
    08:00 +29°C° 0.1 mm 2 mps 755 mmHg 75%
    09:00 +31°C° 0 mm 3 mps 755 mmHg 70%
    10:00 +33°C° 0 mm 4 mps 755 mmHg 65%
    11:00 +34°C° 0 mm 4 mps 755 mmHg 60%
    12:00 +34°C° 0.4 mm 4 mps 755 mmHg 62%
    13:00 +34°C° 0.4 mm 4 mps 754 mmHg 63%
    14:00 +33°C° 0.4 mm 5 mps 754 mmHg 65%
    15:00 +32°C° 0.1 mm 4 mps 754 mmHg 71%
    16:00 +30°C° 0.1 mm 4 mps 754 mmHg 76%
    17:00 +28°C° 0.1 mm 3 mps 754 mmHg 82%
    18:00 +28°C° 0 mm 4 mps 754 mmHg 84%
    19:00 +28°C° 0 mm 4 mps 755 mmHg 86%
    20:00 +28°C° 0 mm 4 mps 755 mmHg 89%
    21:00 +27°C° 0 mm 3 mps 756 mmHg 90%
    22:00 +27°C° 0 mm 3 mps 756 mmHg 91%
    23:00 +27°C° 0 mm 3 mps 756 mmHg 92%
    Show more